Find Starlink 37570

NORAD ID: 69519 Int'l Des: 2026-133 Owner: SPXS Country: US Constellation: starlink operational
LEOCIRCULAR

当前视图

正在加载3D地球...

About Starlink 37570

Starlink 37570 (NORAD 69519) is a starlink constellation satellite (v2 mini) launched Jun 11, 2026 by SPXS of US. It operates in LEO, CIRCULAR orbit with a mass of 575.00 kg.

即将过境

Passes for default location (London). Set your location on the main map for personalized predictions.

高度历史

Loading altitude history...

两行轨道根数

1 69519U 26133M 26235.74412029 .00032059 00000-0 95517-3 0 9991
2 69519 53.1617 359.4166 0000647 78.8316 281.2759 15.34424359 12501
Epoch: Aug 23, 2026 • Age: 16 hours

当前状态

高度 464.8 km
远地点 / 近地点 N/A
速度 7.63 km/s
星下点 -7.52°S, 54.46°E
发射日期 Jun 11, 2026
运行时间 0.1 years
类型 internet

技术详情

分类 Payload
质量 575.00 kg
干质量 530.00 kg
总质量 575.00 kg
长度 0.30 m
直径 4.10 m
跨度 29.00 m
形状 Box + pan
制造商 SPXS
平台类型 Starlink V2MO
阶段状态 In Orbit
所有者/国家 SPXS/US

Most Searched